{"data":{"norad_id":65041,"epoch":"2026-05-25T04:00:03.998880Z","epoch_age_seconds":70679,"freshness":"FRESH","line1":"1 65041U 25161AC  26145.16671295  .00009778  00000+0  30029-3 0  9993","line2":"2 65041  53.1601 298.5613 0000590  98.4293 296.0816 15.34384097  5851","mean_motion":15.34384097,"eccentricity":5.9e-5,"inclination_deg":53.1601,"raan_deg":298.5613,"arg_perigee_deg":98.4293,"mean_anomaly_deg":296.0816,"bstar":0.00030029,"rev_number":585,"period_min":93.848730758841,"perigee_km":462.3468953198,"apogee_km":463.15412004571,"semimajor_km":6840.8875076828,"source":"CELESTRAK","updated_at":"2026-05-25T13:38:20.674638Z"}}